SV2RCS-13 Weather Reports


time (UTC)temp
F
wind
direction
speed
knots
gust
knots
rain 1hr
in
rain 24hr
in
rain mn
in
humidity
%
barometer
mb
20260902163918 85 0.0 0.0 0.00 0.00 0.00 31 1011.7
20260902162918 85 0.0 0.0 0.00 0.00 0.00 30 1011.8
20260902161919 85 0.0 0.0 0.00 0.00 0.00 29 1011.5
20260902160919 86 0.0 0.0 0.00 0.00 0.00 28 1011.5
20260902155918 86 0.0 0.0 0.00 0.00 0.00 28 1011.2
20260902154918 86 0.0 0.0 0.00 0.00 0.00 28 1011.1
20260902153918 86 0.0 0.0 0.00 0.00 0.00 28 1011.0
20260902152918 87 0.0 0.0 0.00 0.00 0.00 26 1010.9
20260902151918 87 0.0 0.0 0.00 0.00 0.00 26 1011.1
20260902150919 87 0.0 0.0 0.00 0.00 0.00 26 1011.1
20260902145917 87 0.0 0.0 0.00 0.00 0.00 27 1010.9
20260902144919 87 0.0 0.0 0.00 0.00 0.00 26 1010.5
20260902143918 88 0.0 0.0 0.00 0.00 0.00 26 1010.5
20260902142919 88 0.0 0.0 0.00 0.00 0.00 26 1010.9
20260902141919 88 0.0 0.0 0.00 0.00 0.00 25 1010.8
20260902140918 88 0.0 0.0 0.00 0.00 0.00 26 1011.1
20260902135919 88 0.0 0.0 0.00 0.00 0.00 24 1011.1
20260902134919 88 0.0 0.0 0.00 0.00 0.00 24 1011.1
20260902133918 88 0.0 0.0 0.00 0.00 0.00 24 1010.8
20260902132920 88 0.0 0.0 0.00 0.00 0.00 25 1011.2
20260902131918 88 0.0 0.0 0.00 0.00 0.00 24 1011.4
20260902130918 87 0.0 0.0 0.00 0.00 0.00 24 1011.6
20260902125918 88 0.0 0.0 0.00 0.00 0.00 24 1011.7
20260902124919 88 0.0 0.0 0.00 0.00 0.00 24 1011.7
20260902123919 88 0.0 0.0 0.00 0.00 0.00 24 1011.8
20260902122918 88 0.0 0.0 0.00 0.00 0.00 25 1012.0
20260902121919 88 0.0 0.0 0.00 0.00 0.00 25 1011.9
20260902120918 88 0.0 0.0 0.00 0.00 0.00 26 1012.1
20260902115918 88 0.0 0.0 0.00 0.00 0.00 26 1012.4
20260902114919 88 0.0 0.0 0.00 0.00 0.00 27 1012.6
20260902113919 87 0.0 0.0 0.00 0.00 0.00 26 1012.5
20260902112918 87 0.0 0.0 0.00 0.00 0.00 26 1012.8
20260902111918 87 0.0 0.0 0.00 0.00 0.00 26 1013.0
20260902110918 87 0.0 0.0 0.00 0.00 0.00 26 1013.1
20260902105918 88 0.0 0.0 0.00 0.00 0.00 25 1013.1
20260902104918 89 0.0 0.0 0.00 0.00 0.00 26 1013.1
20260902103918 88 0.0 0.0 0.00 0.00 0.00 28 1013.4
20260902102918 88 0.0 0.0 0.00 0.00 0.00 27 1013.4
20260902101918 88 0.0 0.0 0.00 0.00 0.00 26 1013.6
20260902100918 90 0.0 0.0 0.00 0.00 0.00 26 1013.5
20260902095918 89 0.0 0.0 0.00 0.00 0.00 28 1013.8
20260902094918 90 0.0 0.0 0.00 0.00 0.00 26 1013.6
20260902093919 93 0.0 0.0 0.00 0.00 0.00 19 1013.3
20260902092918 96 0.0 0.0 0.00 0.00 0.00 18 1013.1
20260902091919 95 0.0 0.0 0.00 0.00 0.00 18 1013.3
20260902090918 93 0.0 0.0 0.00 0.00 0.00 19 1013.7
20260902085918 96 0.0 0.0 0.00 0.00 0.00 16 1013.5
20260902084918 95 0.0 0.0 0.00 0.00 0.00 19 1013.6
20260902083919 95 0.0 0.0 0.00 0.00 0.00 19 1013.5
20260902082918 94 0.0 0.0 0.00 0.00 0.00 20 1013.6
20260902081919 91 0.0 0.0 0.00 0.00 0.00 25 1014.1
20260902080919 93 0.0 0.0 0.00 0.00 0.00 20 1013.7
20260902075918 95 0.0 0.0 0.00 0.00 0.00 20 1013.4
20260902074919 94 0.0 0.0 0.00 0.00 0.00 19 1013.6
20260902073918 94 0.0 0.0 0.00 0.00 0.00 20 1013.5
20260902072918 94 0.0 0.0 0.00 0.00 0.00 20 1013.4
20260902071918 92 0.0 0.0 0.00 0.00 0.00 20 1013.8
20260902070918 92 0.0 0.0 0.00 0.00 0.00 22 1013.8
20260902065919 92 0.0 0.0 0.00 0.00 0.00 20 1013.9
20260902064918 91 0.0 0.0 0.00 0.00 0.00 23 1013.9
20260902063918 91 0.0 0.0 0.00 0.00 0.00 21 1013.6
20260902062918 94 0.0 0.0 0.00 0.00 0.00 19 1013.3
20260902061918 91 0.0 0.0 0.00 0.00 0.00 21 1013.8
20260902060918 91 0.0 0.0 0.00 0.00 0.00 24 1013.8
20260902055918 90 0.0 0.0 0.00 0.00 0.00 25 1014.0
20260902045540 81 0.0 0.0 0.00 0.00 0.00 38 1015.5
20260902044540 79 0.0 0.0 0.00 0.00 0.00 41 1015.7
20260902043539 77 0.0 0.0 0.00 0.00 0.00 44 1016.0
20260902042541 77 0.0 0.0 0.00 0.00 0.00 45 1016.1
20260902041543 76 0.0 0.0 0.00 0.00 0.00 46 1016.0
20260902040540 77 0.0 0.0 0.00 0.00 0.00 46 1015.8
20260902035539 77 0.0 0.0 0.00 0.00 0.00 46 1015.7
20260902034540 77 0.0 0.0 0.00 0.00 0.00 46 1015.7
20260902033541 77 0.0 0.0 0.00 0.00 0.00 45 1015.5
20260902032540 77 0.0 0.0 0.00 0.00 0.00 44 1015.5
20260902031542 77 0.0 0.0 0.00 0.00 0.00 44 1015.5
20260902030540 77 0.0 0.0 0.00 0.00 0.00 43 1015.4
20260902025540 77 0.0 0.0 0.00 0.00 0.00 43 1015.4
20260902024540 77 0.0 0.0 0.00 0.00 0.00 43 1015.4
20260902023540 77 0.0 0.0 0.00 0.00 0.00 41 1015.4
20260902022540 78 0.0 0.0 0.00 0.00 0.00 41 1015.2
20260902021539 78 0.0 0.0 0.00 0.00 0.00 41 1015.1
20260902020540 78 0.0 0.0 0.00 0.00 0.00 42 1015.1
20260902015540 78 0.0 0.0 0.00 0.00 0.00 42 1015.1
20260902014540 78 0.0 0.0 0.00 0.00 0.00 44 1014.9
20260902013540 78 0.0 0.0 0.00 0.00 0.00 47 1015.1
20260902012541 78 0.0 0.0 0.00 0.00 0.00 46 1014.9
20260902011540 78 0.0 0.0 0.00 0.00 0.00 46 1014.8
20260902010540 78 0.0 0.0 0.00 0.00 0.00 45 1014.8
20260902005539 78 0.0 0.0 0.00 0.00 0.00 43 1014.8
20260902004539 78 0.0 0.0 0.00 0.00 0.00 42 1014.8
20260902003540 78 0.0 0.0 0.00 0.00 0.00 42 1014.9
20260902002540 78 0.0 0.0 0.00 0.00 0.00 43 1015.0
20260902001540 78 0.0 0.0 0.00 0.00 0.00 43 1015.0
20260902000540 78 0.0 0.0 0.00 0.00 0.00 44 1015.0
20260901235540 78 0.0 0.0 0.00 0.00 0.00 44 1014.9
20260901234540 78 0.0 0.0 0.00 0.00 0.00 44 1014.9
20260901233540 77 0.0 0.0 0.00 0.00 0.00 44 1014.8
20260901232540 77 0.0 0.0 0.00 0.00 0.00 44 1014.8
20260901231540 78 0.0 0.0 0.00 0.00 0.00 44 1014.7
20260901230540 78 0.0 0.0 0.00 0.00 0.00 44 1014.6
20260901225540 78 0.0 0.0 0.00 0.00 0.00 43 1014.7
20260901224540 78 0.0 0.0 0.00 0.00 0.00 44 1014.6
20260901223540 78 0.0 0.0 0.00 0.00 0.00 43 1014.6
20260901222540 79 0.0 0.0 0.00 0.00 0.00 43 1014.4
20260901221540 79 0.0 0.0 0.00 0.00 0.00 43 1014.4
20260901220540 78 0.0 0.0 0.00 0.00 0.00 43 1014.6
20260901215540 79 0.0 0.0 0.00 0.00 0.00 42 1014.6
20260901214542 80 0.0 0.0 0.00 0.00 0.00 41 1014.4
20260901213540 79 0.0 0.0 0.00 0.00 0.00 41 1014.4
20260901212541 80 0.0 0.0 0.00 0.00 0.00 41 1014.2
20260901211540 80 0.0 0.0 0.00 0.00 0.00 41 1014.2
20260901210540 80 0.0 0.0 0.00 0.00 0.00 41 1014.2
20260901205540 80 0.0 0.0 0.00 0.00 0.00 40 1014.1
20260901204539 81 0.0 0.0 0.00 0.00 0.00 39 1014.0
20260901203540 81 0.0 0.0 0.00 0.00 0.00 39 1014.0
20260901202540 81 0.0 0.0 0.00 0.00 0.00 39 1014.0
20260901201543 81 0.0 0.0 0.00 0.00 0.00 39 1013.9
20260901200539 82 0.0 0.0 0.00 0.00 0.00 39 1013.9
20260901195540 82 0.0 0.0 0.00 0.00 0.00 39 1013.7
20260901194540 82 0.0 0.0 0.00 0.00 0.00 39 1013.7
20260901193539 82 0.0 0.0 0.00 0.00 0.00 39 1013.6
20260901192540 82 0.0 0.0 0.00 0.00 0.00 39 1013.6
20260901191540 83 0.0 0.0 0.00 0.00 0.00 38 1013.4
20260901190540 83 0.0 0.0 0.00 0.00 0.00 38 1013.5
20260901185540 83 0.0 0.0 0.00 0.00 0.00 38 1013.4
20260901184543 83 0.0 0.0 0.00 0.00 0.00 38 1013.1
20260901183539 84 0.0 0.0 0.00 0.00 0.00 38 1013.1
20260901182539 84 0.0 0.0 0.00 0.00 0.00 38 1013.0
20260901181543 83 0.0 0.0 0.00 0.00 0.00 38 1012.7
20260901180539 84 0.0 0.0 0.00 0.00 0.00 38 1012.6
20260901175540 84 0.0 0.0 0.00 0.00 0.00 40 1012.2
20260901174539 84 0.0 0.0 0.00 0.00 0.00 40 1012.1
20260901173540 84 0.0 0.0 0.00 0.00 0.00 39 1011.8
20260901172539 84 0.0 0.0 0.00 0.00 0.00 38 1011.8
20260901171539 85 0.0 0.0 0.00 0.00 0.00 36 1011.7
20260901170539 85 0.0 0.0 0.00 0.00 0.00 35 1011.5
20260901165540 85 0.0 0.0 0.00 0.00 0.00 35 1011.2